Chatham, MA

5:38 AM EST on December 08, 2019 (GMT -0500)
Chatham Municipal

Weather History for KCQX - October, 2019

Change the Weather History Date:

Saturday, October 26, 2019

  Actual Average Record
Temperature  
Mean Temperature 50 °F -  
Max Temperature 59 °F 55 °F 66 °F (2010)
Min Temperature 44 °F 42 °F 34 °F (2013)
Degree Days  
Heating Degree Days 14    
Moisture  
Dew Point 48 °F    
Average Humidity 83    
Maximum Humidity 97    
Minimum Humidity 60    
Precipitation  
Precipitation 0.00 in - - ()
Sea Level Pressure  
Sea Level Pressure 30.21 in    
Wind  
Wind Speed 2 mph (NNE)    
Max Wind Speed 10 mph    
Max Gust Speed 18 mph    
Visibility 10 miles    
Events      
Averages and records for this station are not official NWS values.
T = Trace of Precipitation, MM = Missing Value Source: NWS Daily Summary

Daily Weather History Graph

Daily Weather History Graph

Search for Another Location

Airport or City:

Astronomy

Oct. 26, 2019 Rise Set
Actual Time 7:04 AM EDT 5:42 PM EDT
Civil Twilight 6:36 AM EDT 6:11 PM EDT
Nautical Twilight 6:03 AM EDT 6:43 PM EDT
Astronomical Twilight 5:31 AM EDT 7:15 PM EDT
Moon 4:53 AM EDT (10/26) 5:18 PM EDT (10/26)
Length of Visible Light 11h 35m
Length of Day
10h 38m
Waning Crescent, 3% of the Moon is Illuminated
Oct 26
Waning Crescent
Oct 27
New
Nov 4
First Quarter
Nov 12
Full
Nov 19
Last Quarter

Hourly Weather History & Observations

Time (EDT) Temp. Dew Point Humidity Pressure Visibility Wind Dir Wind Speed Gust Speed Precip Events Conditions
12:10 AM 55.0 °F 54.0 °F 96% 30.16 in 8.0 mi Calm Calm - N/A   Mostly Cloudy
12:18 AM 55.0 °F 54.0 °F 96% 30.16 in 8.0 mi Calm Calm - N/A   Mostly Cloudy
12:29 AM 55.0 °F 54.0 °F 96% 30.16 in 9.0 mi Calm Calm - N/A   Mostly Cloudy
12:42 AM 55.0 °F 54.0 °F 96% 30.16 in 8.0 mi Calm Calm - N/A   Scattered Clouds
12:52 AM 55.0 °F 54.0 °F 96% 30.16 in 9.0 mi Calm Calm - N/A   Partly Cloudy
2:52 AM 55.0 °F 54.0 °F 96% 30.14 in 9.0 mi Calm Calm - 0.00 in   Mostly Cloudy
4:40 AM 54.0 °F 53.1 °F 97% 30.12 in 5.0 mi Calm Calm - N/A   Overcast
5:52 AM 54.0 °F 52.0 °F 93% 30.14 in 9.0 mi Calm Calm - N/A   Overcast
6:16 AM 54.0 °F 53.1 °F 97% 30.14 in 9.0 mi Calm Calm - N/A   Overcast
6:27 AM 54.0 °F 53.1 °F 97% 30.14 in 10.0 mi Variable 3.5 mph - N/A   Overcast
6:41 AM 55.0 °F 53.1 °F 93% 30.14 in 10.0 mi Variable 3.5 mph - N/A   Overcast
6:52 AM 54.0 °F 52.0 °F 93% 30.14 in 10.0 mi NNW 4.6 mph - N/A   Mostly Cloudy
7:01 AM 54.0 °F 52.0 °F 93% 30.14 in 10.0 mi Calm Calm - N/A   Scattered Clouds
7:52 AM 53.1 °F 51.1 °F 93% 30.17 in 10.0 mi Calm Calm - N/A   Clear
8:28 AM 55.0 °F 51.1 °F 86% 30.19 in 10.0 mi Variable 4.6 mph - N/A   Mostly Cloudy
8:38 AM 55.0 °F 51.1 °F 86% 30.19 in 10.0 mi Variable 4.6 mph - N/A   Scattered Clouds
8:48 AM 55.4 °F 51.8 °F 88% 30.20 in 10.0 mi Variable 5.8 mph - N/A   Mostly Cloudy
8:52 AM 57.0 °F 51.1 °F 81% 30.21 in 10.0 mi Variable 5.8 mph - N/A   Mostly Cloudy
9:52 AM 55.0 °F 48.9 °F 80% 30.22 in 10.0 mi Variable 4.6 mph - N/A   Mostly Cloudy
10:25 AM 55.9 °F 48.9 °F 77% 30.22 in 10.0 mi Variable 6.9 mph - N/A   Scattered Clouds
10:52 AM 57.9 °F 50.0 °F 75% 30.22 in 10.0 mi North 5.8 mph - N/A   Mostly Cloudy
10:59 AM 57.0 °F 48.9 °F 74% 30.21 in 10.0 mi NW 10.4 mph 18.4 mph N/A   Mostly Cloudy
11:34 AM 57.0 °F 46.9 °F 69% 30.21 in 10.0 mi Variable 6.9 mph - N/A   Partly Cloudy
11:52 AM 57.0 °F 46.9 °F 69% 30.22 in 10.0 mi NNW 10.4 mph 17.3 mph N/A   Partly Cloudy
12:41 PM 55.9 °F 46.9 °F 72% 30.22 in 10.0 mi NE 8.1 mph - N/A   Mostly Cloudy
12:52 PM 55.0 °F 46.9 °F 74% 30.23 in 10.0 mi NNE 6.9 mph - N/A   Mostly Cloudy
1:14 PM 55.9 °F 46.0 °F 69% 30.23 in 10.0 mi NNE 9.2 mph - N/A   Mostly Cloudy
1:52 PM 55.9 °F 42.1 °F 60% 30.23 in 10.0 mi NE 8.1 mph - N/A   Partly Cloudy
2:52 PM 55.0 °F 43.0 °F 64% 30.24 in 10.0 mi NNE 8.1 mph - N/A   Partly Cloudy
3:52 PM 55.0 °F 43.0 °F 64% 30.26 in 10.0 mi NE 6.9 mph - N/A   Clear
4:52 PM 53.1 °F 42.1 °F 66% 30.28 in 10.0 mi Variable 5.8 mph - N/A   Clear
5:52 PM 51.1 °F 42.1 °F 71% 30.28 in 10.0 mi NNE 3.5 mph - N/A   Clear
6:52 PM 51.1 °F 42.1 °F 71% 30.30 in 10.0 mi NE 4.6 mph - N/A   Clear
7:52 PM 50.0 °F 42.1 °F 74% 30.31 in 10.0 mi Calm Calm - N/A   Clear
8:52 PM 46.0 °F 42.1 °F 86% 30.31 in 10.0 mi Calm Calm - N/A   Clear
9:52 PM 44.1 °F 41.0 °F 89% 30.31 in 10.0 mi Calm Calm - N/A   Clear
10:52 PM 44.1 °F 41.0 °F 89% 30.32 in 10.0 mi Calm Calm - N/A   Clear
11:52 PM 45.0 °F 42.1 °F 90% 30.32 in 10.0 mi Calm Calm - N/A   Clear